User: anonymous   Login
Location: Coopersdale
(40.3556°N, 78.9372°W)
Time: 09:53:16
(UTC+00:00)
Language:

Transit 2A - Orbit

View from above orbital plane
View from above orbital plane
View from above satellite
View from above satellite

Ground track
Ground track

The orbit data is extracted from the following two-line orbital elements,

1 00045U 60007A   21023.74817022 -.00000030  00000-0  19324-4 0  9998
2 00045  66.6942 160.3342 0252573 156.8272 204.4462 14.33703224 97410
Epoch (UTC): 23 January 2021 17:57:21
Eccentricity: 0.0252573
inclination: 66.6942°
perigee height: 598 km
apogee height: 960 km
right ascension of ascending node: 160.3342°
argument of perigee: 156.8272°
revolutions per day: 14.33703224
mean anomaly at epoch: 204.4462°
orbit number at epoch: 9741

The dashed part of the orbit path shows where the satellite is in the earth's shadow,  

DLR